Regional Weather Roundup
Issued by NWS

Home | Current Version | Previous Version | Graphics & Text | Print | Product List | Glossary On
Versions: 1 2 3 4 5 6 7 8 9 10 11 12 13 14 15 16 17 18 19 20 21 22 23 24 25 26 27 28 29 30 31 32 33 34 35 36 37 38 39 40 41 42 43 44 45 46 47 48 49 50
000
ASUS45 KSLC 271210
RWRUT

UTAH REGIONAL WEATHER ROUNDUP
NATIONAL WEATHER SERVICE SALT LAKE CITY UT
600 AM MDT THU JUL 27 2017

UTZ001>011-023>025-271300-

NORTHERN UTAH

CITY           SKY/WX    TMP DP  RH WIND       PRES   REMARKS
BRIGHAM CITY   CLEAR     62  54  75 CALM      30.19S
HILL AFB       CLEAR     62  55  75 E14       30.20S
LOGAN          PTCLDY    63  56  78 SE3       30.20S
OGDEN          CLEAR     64  56  75 SE6       30.17S
SALT LAKE CITY PTCLDY    67  57  70 SE6       30.17R
TOOELE VALLEY  CLEAR     63  55  77 S8        30.19R
WENDOVER       MOCLDY    66  54  65 S3        30.17F
HEBER CITY     CLEAR     54  50  87 CALM      30.27S
WEST JORDAN    CLEAR     62  61  98 S3        30.21R

$$

UTZ011>015-024>027-271300-

CENTRAL/NORTHEAST UTAH

CITY           SKY/WX    TMP DP  RH WIND       PRES   REMARKS
PROVO AIRPORT  CLEAR     63  57  81 E3        30.22R
MOAB/CANYONLAN CLEAR     69  64  84 CALM      30.12R
DELTA          CLEAR     61  54  77 NE5       30.21S
PRICE          CLEAR     66  57  72 CALM      30.24R
RICHFIELD      CLEAR     57  57 100 CALM      30.27R
ROOSEVELT      CLOUDY    59  54  82 SW5       30.24R
VERNAL         CLEAR     62  54  74 CALM      30.22R

$$

UTZ013>016-019>022-027-271300-

SOUTHERN UTAH

CITY           SKY/WX    TMP DP  RH WIND       PRES   REMARKS
BRYCE CANYON   CLEAR     50  48  93 W5        30.40R
CEDAR CITY     CLEAR     59  57  93 SW5       30.24S
MILFORD        CLEAR     59  51  75 NW6       30.21R
ST GEORGE      SUNNY     74  66  76 SE5       30.06R
HANKSVILLE     CLEAR     68  63  83 SE3       30.16R
KANAB          CLEAR     63  59  88 N3        30.24R
BLANDING       CLEAR     61  52  72 N3        30.29S

$$

REGIONAL REPORTS     COLORADO/ARIZONA

CITY           SKY/WX    TMP DP  RH WIND       PRES   REMARKS
CRAIG, CO      PTCLDY    53  52  96 CALM      30.29S
GRAND JUNCTION CLEAR     65  59  81 SE7       30.16S
RIFLE, CO      CLEAR     63  57  81 E3        30.24R
MONTROSE, CO   CLEAR     63  56  78 SE6       30.26R
CORTEZ, CO     CLEAR     58  55  90 CALM      30.23S
COLORADO CITY    N/A     64  63  94 SE7       30.22R
PAGE, AZ       CLEAR     76  58  53 SW3       30.13R
GRAND CANYON   CLEAR     55  54  96 CALM      30.32R
KINGMAN, AZ    CLEAR     71  63  75 CALM      30.08R
FLAGSTAFF, AZ  PTCLDY    55  53  93 CALM      30.35R

$$

REGIONAL REPORTS    NEVADA/IDAHO/WYOMING

CITY           SKY/WX    TMP DP  RH WIND       PRES   REMARKS
LAS VEGAS, NV  PTCLDY    86  63  45 NE3       29.97R
ELY, NY          N/A    N/A N/A N/A MISG      30.31F
ELKO, NV       PTCLDY    57  48  72 CALM      30.24R
POCATELLO, ID  CLEAR     55  53  93 CALM      30.20S
BURLEY, ID     MOCLDY    61  54  77 S3        30.18R
FORT BRIDGER,    N/A     56  51  84 W9        30.37R
EVANSTON, WY   CLEAR     54  50  86 S3        30.35R
ROCK SPRINGS,  CLOUDY    58  51  78 SW7       30.32R
KEMMERER, WY     N/A     52  48  87 NW9       30.36S

$$



USA.gov is the U.S. government's official web portal to all federal, state and local government web resources and services.